www.pogodaiklimat.ru

Погода и климат >> Архив погоды >> Мексика >> Керетаро


ПОГОДА в Керетаро

  • Прогноз погоды в Керетаро
  • Монитор погоды в Керетаро

АРХИВ ПОГОДЫ в Керетаро

Время (UTC), дата Ветер
(напр.,м/с)
 
Видим.   Явления Облачность Т
(С)
Тd
(С)
f
(%)
Тe
(С)
Тes
(С)
Комфортность P
(гПа)
Po
(гПа)
Тmin
(С)
Tmax
(С)
R
(мм)
R24
(мм)
S
(см)
06 14.01 СВ 5 20 км 9/4 840 м
[Sc diur, vesp Ac inh]
+13.0 +9.8 81 +11 +11 1014.9 817.5 +21.2
09 14.01 В 2 10 км 8/3 750 м
[Cu hum Ac trans]
+12.8 +9.9 83 +12 +12 1016.7 812.8
12 14.01 С 1 10 км 5/1 750 м
[St Ac cuf]
+12.0 +9.4 84 +12 +12 1018.1 817.9 +10.8 +21.2
15 14.01 В 2 20 км 10/10 800 м
[Cu med, cong]
+12.9 +9.8 81 +12 +12 1023.4 821.6
18 14.01 В 2 20 км 9/9 800 м
[Cu med, cong]
+16.9 +9.9 63 +17 +18 1019.8 819.2 +10.8 +17.1
21 14.01 В 4 20 км 3/3 800 м
[Sc diur, vesp]
+17.2 +9.6 61 +17 +21 1015.5 816.3
00 15.01 В 2 20 км 1/0
[Ac As]
+17.8 +9.7 59 +18 +18 1013.2 815.5 +10.8 +19.8
03 15.01 В 2 20 км 1/0
[Ac As]
+17.8 +9.7 59 +18 +18 1013.2 815.5 +10.8 +19.8
06 15.01 СВ 5 20 км ясно +10.4 +7.3 81 +7 +7 1016.6 817.8 +19.8
09 15.01 В 2 10 км 4/1 750 м
[Cu hum Ac trans]
+10.2 +7.8 85 +9 +9 1017.4 817.5
12 15.01 В 1 10 км 6/1 750 м
[Cu hum Ac cuf]
+9.6 +7.6 87 +9 +9 1019.0 817.3 +8.5 +19.8
15 15.01 В 1 20 км 9/5 840 м
[Cu med, cong Ac und]
+11.1 +7.9 81 +11 +12 1021.8 818.9
18 15.01 СЗ 1 20 км 9/0 2000 м
[Ac As]
+18.2 +9.8 58 +20 +25 1020.5 818.6 +8.5 +18.9
21 15.01 СЗ 2 20 км 8/0
[Ac inh]
+20.8 +10.6 52 +23 +27 комфорт 1014.8 815.6
00 16.01 СЗ 2 20 км 8/0
[Ac inh]
+20.8 +10.6 52 +23 +23 комфорт 1014.8 815.6
03 16.01 ЮВ 2 20 км 4/0
[Ac As]
+17.0 +10.8 67 +17 +17 1012.0 816.0
06 16.01 ЮВ 3 20 км 6/0
[Ac inh]
+14.8 +10.4 75 +14 +14 1013.8 817.5 +21.2
09 16.01 В 1 10 км 4/0
[Ac trans]
+13.8 +10.3 79 +14 +14 1014.1 816.8
12 16.01 ЮВ 1 10 км 5/3 750 м
[Cu hum Ac trans]
+12.0 +9.7 86 +12 +12 1015.3 816.6 +10.8 +21.2
15 16.01 штиль 0 20 км 6/0 2000 м
[Ac trans]
+12.5 +10.4 87 +12 +15 1018.3 818.2
18 16.01 В 2 20 км 8/0 2000 м
[Ac As]
+20.8 +10.8 53 +23 +29 комфорт 1017.1 817.5 +10.8 +21.4
21 16.01 СЗ 1 20 км 6/3 840 м
[Cu med, cong Ac As]
+23.5 +9.7 42 +25 +29 комфорт 1011.6 814.4
00 17.01 СЗ 2 20 км 8/6 600 м
[Cu Sc Ac As]
+21.6 +10.5 49 +23 +23 комфорт 1009.4 814.1 +10.8 +24.4
03 17.01 В 1 5000 м 9/9 800 м
[Cu Sc]
+18.5 +10.2 58 +20 +20 1010.6 816.2
06 17.01 В 2 5000 м 10/10 800 м
[Cu med, cong]
+15.5 +9.6 68 +15 +15 1013.2 818.0 +24.4
09 17.01 В 1 5000 м 10/10 800 м
[Cu Sc]
+14.5 +9.3 71 +15 +15 1013.1 816.7
12 17.01 С 1 5000 м 8/8 800 м
[Cu med, cong]
+13.1 +9.5 79 +13 +13 1014.4 816.3 +12.6 +24.4
15 17.01 штиль 0 20 км 6/3 750 м
[Cu hum Ac trans]
+13.5 +9.8 78 +13 +15 1017.7 818.0
18 17.01 СВ 2 20 км 3/0 2000 м
[Ac trans]
+19.8 +9.8 52 +22 +32 комфорт 1017.1 817.7 +12.6 +20.1
21 17.01 В 1 20 км 4/3 800 м
[Cu med, cong Ac As]
+25.4 +8.7 35 +26 +32 жарко 1011.1 814.3
00 18.01 В 2 20 км 5/1 600 м
[Sc Ac inh]
+22.6 +9.9 44 +24 +24 комфорт 1007.0 812.6 +12.6 +25.6
03 18.01 СВ 4 20 км 8/3 800 м
[Sc Ac inh]
+18.0 +10.2 60 +18 +18 1008.2 814.5
06 18.01 СВ 4 20 км 8/3 800 м
[Sc Ac inh]
+15.4 +10.3 72 +14 +14 1010.9 816.5 +25.6
09 18.01 В 1 10 км 4/1 750 м
[Cu hum Ac trans]
+13.0 +9.8 81 +13 +13 1011.8 815.7
12 18.01 штиль 0 10 км 3/0
[Ac trans]
+11.6 +9.3 86 +11 +11 1013.3 815.1 +10.5
15 18.01 СЗ 1 20 км 6/0 2000 м
[Ac und]
+11.9 +10.1 89 +12 +14 1017.0 816.9
18 18.01 СЗ 1 20 км 5/0 2000 м
[Ac trans]
+18.1 +11.5 65 +19 +29 1016.8 816.7 +10.5 +18.8
03 19.01 ЮЗ 3 20 км 8/1 800 м
[Sc Ac inh]
+19.0 +10.3 57 +20 +20 1008.5 813.8
06 19.01 З 2 20 км 3/0
[Ac As]
+15.8 +9.0 64 +16 +16 1009.5 814.7 +24.2
09 19.01 штиль 0 10 км 3/0
[Ac trans]
+14.6 +10.5 76 +14 +14 1010.7 814.7

 

Местоположение метеостанции Керетаро (Мексика): широта 20.58 долгота -100.40 высота над уровнем моря 1880 м.

В архиве по умолчанию представлена погода в Керетаро за последнюю неделю. Архивные данные за месяц целиком и за предыдущие месяцы, начиная с января 2011 года, Вы можете получить, выбрав интересующий диапазон дат из раскрывающегося списка и нажав кнопку "Ввод!".


*Определитесь, кто Вы:
робот инопланетянин человек

Внимание! Время в таблицах - всемирное. Для получения местного времени необходимо прибавить поправку, которая равна -6 ч.

Смотрите также архив погоды в соседних городах и на ближайших метеорологических станциях:

Погода в Гуанахуато (Мексика) (95 км)
Погода в Морелии (Мексика) (122 км)
Погода в Рио-Верде (Мексика) (156 км)
Погода в Толуке (Мексика) (163 км)
Погода в Пачуке (Мексика) (179 км)
Погода в Лагос де Морено (Мексика) (180 км)
Погода в Мехико (Мексика) (183 км)
Погода в Маталапе (Мексика) (185 км)
Погода в Сан-Луис-Потоси (Мексика) (185 км)
Погода в Институте Географии (Мексика) (189 км)

Пояснения к столбцам:

Ветер - указаны скорость ветра в м/с - средняя за 10 мин, порывы в срок и между сроками (в фигурных скобках) и направление, откуда дует ветер: С - северный, СВ - северо-восточный, В - восточный, ЮВ - юго-восточный, Ю - южный, ЮЗ - юго-западный, З - западный, СЗ - северо-западный.
Видимость - горизонтальная дальность видимости в метрах или километрах. При видимости от 1 до 10 км при отсутствии осадков обычно наблюдается дымка, при ухудшении видимости до 1 км и менее - туман. В сухую погоду видимость может ухудшаться дымом, пылью или мглою.
Явления - указаны атмосферные явления, наблюдавшиеся в срок или в последний час перед сроком; фигурными скобками обозначены явления, наблюдавшиеся между сроками (за 1-3 часа до срока); квадратными скобками обозначены град или гололедные отложения с указанием их диаметра в мм.
Облачность - указаны через наклонную черту общая и нижняя облачность в баллах и высота нижней границы облаков в метрах; квадратными скобками обозначены формы облаков: Ci - перистые, Cs - перисто-слоистые, Cc - перисто-кучевые, Ac - высококучевые, As - высокослоистые, Sc - слоисто-кучевые, Ns - слоисто-дождевые, Cu - кучевые, Cb - кучево-дождевые. Подробнее классификацию облаков см. в Атласе облаков (PDF).
T - Температура воздуха - температура, измеренная на высоте 2 м над землей.
Td - Температура точки росы - температура, при понижении до которой содержащийся в воздухе водяной пар достигнет насыщения.
f - Относительная влажность воздуха - влажноcть воздуха, измеренная на высоте 2 м над землей.
Te - Эффективная температура - температура, которую ощущает одетый по сезону человек в тени. Характеристика душности погоды. При расчете учитывается влияние влажности воздуха и скорости ветра на теплоощущения человека.
Tes - Эффективная температура на солнце - температура, которую ощущает человек, с поправкой на солнечный нагрев. Характеристика знойности погоды. Зависит от высоты солнца над горизонтом, облачности и скорости ветра. Ночью, в пасмурную погоду, а также при ветре 12 м/с и более поправка равна нулю.
P - Атмосферное давление - приведенное к уровню моря атмосферное давление.
Po - Атмосферное давление - измеренное на уровне метеостанции атмосферное давление.
Tmin - Минимальная температура - минимум температуры воздуха на высоте 2 м над землей.
Tmax - Максимальная температура - максимум температуры воздуха на высоте 2 м над землей.
R - Количество осадков - Количество выпавших осадков за период времени, мм. При наведении курсора мыши на число - период времени, за который выпало указанное количество осадков.
R24 - Количество осадков - Количество выпавших осадков за 24 часа, мм.
S - Снежный покров - Высота снежного покрова, см. При наведении курсора мыши на число - состояние снежного покрова и степень покрытия местности в баллах.